SCP
0 0 0 0 0 0 0 0 0 0 0 0 0 0 0 0 1 1 1 1 1 1 1 1 1 1 1 0 0 0 0 0 0 0 0 0 0 0 0 0 0 0 0 0 0 0 0 0 0
0 0 0 0 0 0 0 0 0 0 0 0 0 0 0 1 1 1 1 1 1 1 1 1 1 1 1 1 0 0 0 0 0 0 0 0 0 0 0 0 0 0 0 0 0 0 0 0 0
0 0 0 0 0 0 0 0 0 0 0 0 0 0 1 1 1 1 1 1 1 1 1 1 1 1 1 1 0 0 0 0 0 0 0 0 0 0 0 0 0 0 0 0 0 0 0 0 0
0 0 0 0 0 0 0 0 0 0 0 0 0 1 1 1 1 1 1 1 1 1 1 1 1 1 1 1 0 0 0 0 0 0 0 0 0 0 0 0 0 0 0 0 0 0 0 0 0
0 0 0 0 0 0 0 0 0 0 0 0 1 1 1 1 1 1 1 1 1 1 1 1 1 1 1 1 1 0 0 0 0 0 0 0 0 0 0 0 0 0 0 0 0 0 0 0 0
0 0 0 0 0 0 0 0 0 0 0 0 1 1 1 1 1 1 1 1 1 1 1 1 1 1 1 1 1 0 0 0 0 0 0 0 0 0 0 0 0 0 0 0 0 0 0 0 0
0 0 0 0 0 0 0 0 0 0 0 0 1 1 1 1 1 1 1 1 1 1 1 1 1 1 1 1 0 0 0 0 0 0 0 0 0 0 0 0 0 0 0 0 0 0 0 0 0
0 0 0 0 0 0 0 0 0 0 0 0 0 1 1 1 1 1 1 1 1 1 1 0 0 0 0 0 0 0 0 0 0 0 0 0 0 0 0 0 0 0 0 0 0 0 0 0 0
0 0 0 0 0 0 0 0 0 0 0 0 0 1 1 1 1 1 1 1 1 1 0 0 0 0 0 0 0 0 0 0 0 0 0 0 0 0 0 0 0 0 0 0 0 0 0 0 0
0 0 0 0 0 0 0 0 0 0 0 0 0 1 1 1 1 1 1 1 0 0 0 0 0 0 0 0 0 0 0 0 0 0 0 0 0 0 0 0 0 0 0 0 0 0 0 0 0
0 0 0 0 0 0 0 0 0 0 0 0 0 1 1 1 1 1 0 0 0 0 0 0 0 0 0 0 0 0 0 0 0 0 0 0 0 0 0 0 0 0 0 0 0 0 0 0 0
0 0 0 0 0 0 0 0 0 0 0 0 0 1 1 1 1 0 0 0 0 0 0 0 0 0 0 0 0 0 0 0 0 0 0 0 0 0 0 0 0 0 0 0 0 0 0 0 0
0 0 0 0 0 0 0 0 0 0 0 0 0 0 1 0 0 0 0 0 0 0 0 0 0 0 0 0 0 0 0 0 0 0 0 0 0 0 0 0 0 0 0 0 0 0 0 0 0
0 0 0 0 0 0 0 0 0 0 0 0 0 0 0 0 0 0 0 0 0 0 0 0 0 0 0 0 0 0 0 0 0 0 0 0 0 0 0 0 0 0 0 0 0 0 0 0 0
0 0 0 0 0 0 0 0 0 0 0 0 0 0 0 0 0 0 0 0 0 0 0 0 0 0 0 0 0 0 0 0 0 0 0 0 0 0 0 0 0 0 0 0 0 0 0 0 0
0 0 0 0 0 0 0 0 0 0 0 0 0 0 0 0 0 0 0 0 0 0 0 0 0 0 0 0 0 0 0 0 0 0 0 0 0 0 0 0 0 0 0 0 0 0 0 0 0
0 0 0 0 0 0 0 0 0 0 0 0 0 0 0 0 0 0 0 0 0 0 0 0 0 0 0 0 0 0 0 0 0 0 0 0 0 0 0 0 0 0 0 0 0 0 0 0 0
0 0 0 0 0 0 0 0 0 0 0 0 0 0 0 0 0 0 0 0 0 0 0 0 0 0 0 0 0 0 0 0 0 0 0 0 0 0 0 0 0 0 0 0 0 0 0 0 0
0 0 0 0 0 0 0 0 0 0 0 0 0 0 0 0 0 0 0 0 0 0 0 0 0 0 0 0 0 0 0 0 0 0 0 0 0 0 0 0 0 0 0 0 0 0 0 0 0
0 0 0 0 0 0 0 0 0 0 0 0 0 0 0 0 0 0 0 0 0 0 0 0 0 0 0 0 0 0 0 0 0 0 0 0 0 0 0 0 0 0 0 0 0 0 0 0 0
0 0 0 0 0 0 0 0 0 0 0 0 0 0 0 0 0 0 0 0 0 0 0 0 0 0 0 0 0 0 0 0 0 0 0 0 0 0 0 0 0 0 0 0 0 0 0 0 0
0 0 0 0 0 0 0 0 0 0 0 0 0 0 0 0 0 0 0 0 0 0 0 -0 0 0 0 0 0 0 0 0 0 0 0 0 0 0 0 0 0 0 0 0 0 0 0 0 0
0 0 0 0 0 0 0 0 0 0 0 0 0 0 0 0 0 0 0 0 0 0 -0 0 0 0 0 0 0 0 0 0 0 0 0 0 0 0 0 0 0 0 0 0 0 0 0 0 0
0 0 0 0 0 0 0 -0 0 0 0 0 0 0 0 0 0 0 0 0 0 0 0 0 0 0 0 0 0 0 0 0 0 0 0 0 0 0 0 0 0 0 0 0 0 0 0 0 0
0 0 0 0 0 0 0 0 0 0 0 -0 -0 -0 0 0 0 0 0 0 0 0 0 0 -0 -0 -0 -0 -0 -0 0 0 0 0 0 0 0 0 0 0 0 0 0 0 0 0 0 0 0
0 0 0 0 0 0 0 0 0 0 0 -0 -0 -0 0 0 0 0 0 0 0 0 0 0 0 -0 -0 -0 -0 -0 0 0 0 0 0 0 0 0 0 0 0 0 0 0 0 0 0 0 0
0 0 0 0 0 0 0 0 0 0 0 0 -0 -0 -0 0 0 0 0 0 0 0 0 0 0 0 0 -0 -0 -0 0 0 0 0 0 0 0 0 0 0 0 0 0 0 0 0 0 0 0
0 0 0 0 0 0 0 0 0 0 0 0 0 0 0 0 0 0 0 0 0 0 0 0 0 0 0 0 0 0 0 0 0 0 0 0 0 0 0 0 0 0 0 0 0 0 0 0 0
0 0 0 0 0 0 0 0 0 0 0 0 0 0 0 0 0 0 0 0 0 0 -0 0 0 0 0 0 0 0 0 0 0 0 0 0 0 0 0 0 0 0 0 0 0 0 0 0 0
0 0 0 0 0 0 0 0 0 0 0 0 0 0 0 0 0 0 0 0 0 0 0 0 0 0 0 0 0 0 0 0 0 0 0 0 0 0 0 0 0 0 0 0 0 0 0 0 0
Wind_Speed
11 9 5 2 3 6 10 7 6 4 3 2 3 2 2 4 3 6 4 7 9 10 11 10 10 9 8 8 7 7 6 6 6 6 6 5 5 5 5 5 5 6 6 6 6 6 6 5 5
9 7 3 2 5 9 8 7 6 3 1 2 3 2 3 5 6 6 4 7 9 9 9 10 10 10 9 8 7 7 6 6 6 5 5 5 5 5 4 5 5 5 5 5 5 5 5 4 4
9 7 3 3 6 10 6 3 4 2 1 0 1 3 4 4 5 4 4 6 8 8 8 10 10 10 9 8 7 7 6 6 6 5 4 5 5 5 5 5 5 5 5 5 4 4 4 3 3
4 3 3 5 11 10 6 3 1 2 1 0 2 3 4 4 3 4 5 6 7 8 8 9 10 10 9 9 8 7 7 6 6 5 4 4 5 5 5 5 5 5 4 4 4 4 3 3 2
3 3 5 8 11 8 5 4 4 3 2 1 1 2 2 3 5 6 5 6 6 7 7 8 10 10 9 9 7 7 7 6 6 5 4 4 5 5 5 5 4 4 3 3 3 3 3 3 2
3 4 5 9 10 7 5 3 4 3 2 2 2 2 2 4 5 4 4 5 5 7 7 6 9 9 9 8 7 7 7 6 6 5 5 5 4 5 5 4 4 3 3 3 2 2 2 2 2
3 3 7 8 7 7 6 3 4 3 3 3 1 2 4 5 4 3 4 4 5 6 7 5 5 7 8 8 7 6 6 6 5 5 5 5 4 4 5 4 4 4 3 2 2 1 1 1 2
3 3 6 7 7 7 4 3 4 4 4 2 1 2 4 5 4 3 4 4 5 5 5 5 4 5 5 6 6 6 5 5 5 5 4 4 3 4 4 4 4 3 2 2 1 1 1 2 2
3 3 5 6 6 4 2 2 3 3 2 2 2 2 4 8 6 4 4 4 4 4 4 4 4 3 4 5 5 5 5 4 4 4 4 3 2 2 3 4 3 2 1 0 1 2 2 3 4
3 4 6 5 5 3 2 2 2 2 2 2 2 5 7 6 6 5 5 4 4 4 3 3 3 3 3 3 3 2 3 3 2 2 2 1 2 2 3 4 3 1 1 2 3 4 4 3 2
3 4 5 6 4 3 2 3 3 3 3 3 3 5 5 5 5 4 4 4 4 4 3 3 3 3 3 2 2 1 1 1 1 2 1 1 2 1 1 1 1 1 1 1 2 2 2 1 1
4 5 5 5 4 3 2 2 4 4 4 2 2 6 6 6 5 4 4 3 4 4 4 3 3 3 2 2 2 1 1 1 1 1 2 1 1 1 1 1 1 1 0 1 1 1 2 1 1
5 5 4 4 3 3 2 4 4 4 3 1 4 6 5 5 4 4 4 4 4 4 4 3 3 3 3 3 1 2 1 1 2 2 2 2 1 2 2 1 1 1 1 1 2 2 2 1 2
3 4 5 4 3 2 3 4 3 2 1 1 4 6 4 4 5 4 4 4 4 4 3 3 4 3 3 3 2 2 1 2 2 2 2 2 2 2 2 2 1 1 1 1 1 2 2 1 1
4 4 5 4 3 2 2 4 5 3 2 1 3 5 4 4 4 4 4 4 3 4 3 4 3 4 4 3 3 2 1 2 2 2 2 3 2 2 2 2 1 1 1 2 2 3 2 2 1
4 4 3 2 3 2 3 5 3 3 3 3 4 5 5 4 4 4 4 4 4 4 4 4 4 4 3 3 2 2 2 2 2 2 2 3 2 2 2 2 2 2 2 2 2 2 2 2 2
2 3 2 1 2 2 4 3 2 3 4 4 3 4 5 4 3 4 4 4 4 4 4 4 4 4 3 3 3 3 3 3 2 2 2 2 3 3 2 2 2 2 2 2 2 2 2 2 3
2 3 2 2 2 2 3 1 1 2 3 4 4 4 4 3 3 4 5 5 4 4 4 4 4 3 3 2 2 2 3 2 2 2 2 2 2 3 2 2 2 2 1 2 2 2 2 2 2
5 4 3 1 1 2 3 3 3 3 3 3 3 4 4 4 4 5 5 5 4 4 3 3 3 2 2 2 1 2 1 1 1 1 2 2 2 2 2 2 2 2 2 2 2 2 2 2 2
5 4 3 2 2 2 2 4 3 2 4 3 3 4 4 4 5 5 5 5 4 4 3 3 3 2 2 2 1 1 2 1 2 1 1 1 1 2 2 2 2 2 2 2 2 2 1 2 2
3 3 2 2 3 2 2 3 4 3 3 3 3 3 3 4 5 5 5 5 5 4 3 3 2 2 2 2 2 2 2 1 1 1 1 0 1 2 2 2 1 2 2 1 2 2 2 1 2
2 3 3 3 2 2 2 2 4 4 4 4 4 4 3 3 4 5 5 4 4 4 4 3 3 2 2 2 2 2 2 2 1 1 1 1 1 1 1 1 1 1 1 1 1 2 1 1 1
2 3 4 4 3 2 2 2 3 5 5 5 4 4 4 4 5 5 5 5 4 4 4 3 3 2 2 2 2 2 1 1 1 1 1 1 1 1 1 0 0 0 0 1 1 1 1 1 1
3 3 4 3 1 2 3 3 3 4 6 6 6 4 4 4 4 5 5 5 4 4 3 3 3 2 2 2 2 2 2 2 2 1 0 0 1 1 1 1 1 0 0 0 1 1 1 1 1
3 1 1 1 1 3 2 2 4 2 3 4 6 5 4 4 4 4 5 4 4 5 4 3 3 3 2 3 2 2 2 2 2 2 1 0 0 1 1 1 1 1 1 1 1 1 1 1 1
3 1 1 1 2 2 1 3 2 2 4 3 3 3 4 4 3 4 4 4 4 5 4 3 3 3 3 3 3 2 2 2 1 1 1 1 1 1 1 2 1 1 1 1 1 1 2 1 1
2 1 1 1 3 2 3 2 2 3 3 3 3 4 3 3 3 3 4 4 4 4 5 4 4 3 3 3 3 2 2 2 1 1 1 1 1 1 1 1 2 2 2 2 1 1 2 2 2
2 2 1 0 2 3 3 2 3 3 4 4 4 4 4 4 4 4 3 3 4 4 3 4 3 3 3 3 2 2 2 2 2 2 2 2 2 1 2 2 2 2 2 2 2 2 2 2 3
2 1 2 2 2 2 3 3 1 4 4 4 4 4 4 4 4 3 3 3 3 3 3 3 3 3 2 2 2 1 2 2 2 2 3 3 2 2 3 3 3 3 3 3 3 3 3 3 3
2 3 2 1 3 3 2 5 1 3 3 3 3 2 3 3 3 3 3 3 3 3 2 2 2 2 2 1 1 1 2 2 2 3 3 3 3 3 3 3 3 3 3 3 3 4 4 4 4
Wind_Direction
303 285 271 260 236 230 235 235 250 249 257 325 341 11 25 21 49 112 135 103 109 118 127 131 125 122 121 118 117 117 116 111 109 110 107 103 99 104 105 99 97 90 83 79 78 76 74 74 71
295 291 268 235 227 230 228 223 244 259 328 355 344 3 58 61 65 99 106 105 114 117 128 131 128 127 123 121 121 120 118 114 108 108 112 107 103 102 104 97 97 93 86 80 77 74 72 71 66
278 268 245 229 230 233 231 207 223 260 338 349 22 5 31 72 82 93 103 109 112 113 118 127 130 128 124 123 122 121 120 116 110 103 107 106 101 100 97 90 90 87 80 75 73 70 67 66 58
274 238 237 238 238 236 242 255 264 245 308 221 118 75 53 43 73 97 104 108 110 111 112 126 130 130 128 126 123 121 119 116 111 104 97 101 96 91 88 84 85 82 78 75 70 63 57 52 45
242 243 226 234 240 242 244 249 281 264 227 257 150 117 80 58 75 91 97 101 107 107 108 126 131 134 132 129 126 121 117 114 108 107 103 98 99 95 88 83 83 83 79 73 66 60 49 45 32
247 235 233 231 237 237 241 265 270 271 265 249 210 147 111 105 87 91 90 96 101 105 108 119 130 132 130 127 125 120 117 114 108 105 102 96 96 97 93 84 79 76 79 71 62 52 40 33 15
255 248 244 247 243 236 235 244 268 274 256 241 214 156 137 126 102 93 96 99 100 106 111 112 123 132 128 121 120 120 117 114 113 110 106 97 94 103 100 87 76 67 66 63 53 41 20 356 332
272 277 252 251 245 245 238 240 265 262 258 273 255 166 148 137 120 102 102 104 100 105 112 119 120 132 131 121 119 118 118 122 128 133 134 135 125 129 118 95 79 67 58 59 47 3 324 306 287
263 247 246 249 248 252 266 274 284 304 280 299 343 24 115 126 129 117 111 104 99 99 104 115 117 116 124 131 132 130 135 143 146 152 167 170 165 145 131 112 103 83 47 334 267 278 275 272 261
231 241 254 276 281 281 277 280 275 270 269 293 41 62 98 124 132 131 133 128 116 105 98 106 112 112 118 138 139 153 151 152 170 147 168 188 99 79 98 130 141 150 287 290 263 270 272 261 250
240 252 270 288 305 320 289 296 281 260 257 248 154 125 121 134 134 134 131 133 127 112 91 77 88 104 110 117 129 118 110 128 109 95 115 100 89 84 86 143 166 211 244 302 287 270 257 263 254
249 263 272 285 323 312 286 298 290 257 274 302 146 140 143 147 147 145 143 139 123 106 98 87 83 87 82 79 99 104 94 101 79 56 46 58 71 74 59 65 47 39 14 342 325 287 288 311 319
255 266 282 278 274 281 286 275 271 270 286 321 118 128 142 143 138 144 138 126 118 109 101 98 90 88 82 73 73 88 83 82 77 50 37 49 67 69 54 38 37 45 11 1 329 319 320 326 325
270 272 272 266 251 255 265 276 274 246 227 118 128 129 136 140 135 137 127 123 118 113 106 98 93 90 86 77 66 67 79 82 81 68 39 40 57 55 54 36 19 32 8 345 331 333 335 315 309
265 260 258 240 216 214 252 257 243 219 177 143 140 129 132 128 118 114 119 121 129 121 111 108 106 92 84 79 68 67 74 85 76 63 47 38 48 52 61 41 16 14 3 1 355 342 345 322 321
239 242 249 222 189 198 222 246 207 200 189 177 149 133 127 125 122 112 112 113 111 110 107 101 100 92 87 82 75 71 61 66 67 60 52 37 31 39 61 53 23 357 12 15 356 349 356 343 342
242 252 256 255 195 199 219 246 185 200 178 154 139 128 121 121 120 117 118 112 103 103 107 99 88 87 87 85 78 71 61 58 62 56 52 42 34 26 58 57 15 2 24 19 357 7 9 353 340
283 272 253 253 216 212 226 248 194 208 168 158 147 134 129 141 136 128 122 117 111 105 103 103 96 91 95 96 88 84 78 64 69 65 46 37 39 31 45 52 21 6 30 26 10 1 5 352 324
291 277 273 318 301 247 228 241 225 213 175 167 147 142 151 151 132 127 122 117 112 107 105 109 105 99 99 101 107 108 108 123 102 91 69 33 47 38 48 39 23 20 41 23 10 12 2 350 347
282 282 307 342 325 283 225 247 223 193 179 168 156 155 162 154 136 132 132 130 128 125 125 123 116 116 109 101 103 119 110 134 129 112 88 31 57 54 51 39 23 26 31 26 20 17 359 348 13
288 297 300 294 297 263 231 252 211 179 157 154 157 159 158 162 153 150 147 147 143 142 154 148 140 137 132 123 107 92 87 73 91 117 109 311 82 85 63 33 24 22 30 37 22 16 24 345 338
295 338 310 286 276 261 217 253 225 178 165 176 180 169 162 156 153 150 150 156 154 154 149 144 144 142 141 132 130 138 144 155 171 172 153 177 142 115 90 40 26 26 21 19 5 29 7 9 315
301 307 280 262 252 273 235 231 242 171 180 193 191 170 157 156 154 155 157 160 152 140 141 144 143 146 142 141 147 145 141 143 120 101 135 153 155 146 137 142 49 11 15 28 6 352 348 345 298
283 277 266 247 239 264 224 213 252 190 192 184 182 175 159 160 156 155 150 144 137 130 135 145 144 159 157 159 170 167 148 132 121 105 113 185 175 163 175 179 194 230 230 42 294 294 301 279 279
293 330 2 338 242 244 174 197 242 157 136 155 164 165 156 159 155 153 147 146 144 144 151 154 155 169 176 174 180 179 163 155 154 157 157 173 201 198 209 203 211 220 220 227 242 261 269 267 266
281 306 66 267 270 286 233 220 225 104 102 100 113 127 140 148 148 152 153 152 152 156 157 160 169 175 178 179 184 184 181 170 171 154 153 206 215 217 202 207 212 222 228 243 252 256 258 261 263
306 309 322 296 287 272 245 218 147 132 125 138 146 148 152 146 145 149 150 151 152 160 166 172 172 174 180 183 181 192 187 175 184 181 199 215 224 222 211 212 223 230 226 229 238 243 254 255 249
270 308 329 279 308 290 263 225 208 178 181 173 167 167 164 152 148 148 149 149 149 155 159 160 167 176 181 176 185 188 194 200 202 202 215 223 230 224 226 229 230 233 229 223 223 241 249 247 249
198 241 254 266 245 260 287 275 22 156 160 167 168 163 160 159 156 155 155 153 148 147 152 159 170 172 174 177 187 198 210 211 213 219 223 222 227 226 229 232 233 234 232 226 221 230 238 245 255
255 236 209 225 272 245 259 270 38 89 115 129 134 129 134 140 145 148 151 143 140 146 151 160 170 171 176 176 185 213 227 227 227 233 234 226 227 230 232 232 234 237 236 232 229 237 236 239 247